This is the latest recevied weather packets stored in our database for station/object SP2FH-13. If no packets are shown the sender has not sent any weather packets the latest 10 day(s).
| Time | Temp. | Humidity | Pressure | Rain* | Wind** | Luminosity | Snow |
|---|---|---|---|---|---|---|---|
| 1777978481 | 22.22° C | 53% | 998 hPa | - | - | 369 W/m² | - |
| 1777978180 | 22.22° C | 54% | 998 hPa | - | - | 408 W/m² | - |
| 1777977275 | 21.67° C | 56% | 998.1 hPa | - | - | 346 W/m² | - |
| 1777976975 | 21.11° C | 57% | 998.3 hPa | - | - | 324 W/m² | - |
| 1777976674 | 21.11° C | 58% | 998.3 hPa | - | - | 288 W/m² | - |
| 1777976373 | 21.67° C | 57% | 998.3 hPa | - | - | 260 W/m² | - |
| 1777976071 | 21.67° C | 57% | 998.4 hPa | - | - | 276 W/m² | - |
| 1777975770 | 21.11° C | 57% | 998.6 hPa | - | - | 288 W/m² | - |
| 1777975469 | 21.11° C | 59% | 998.7 hPa | - | - | 263 W/m² | - |
| 1777975167 | 21.11° C | 59% | 998.7 hPa | - | - | 264 W/m² | - |
| 1777974866 | 20.56° C | 58% | 998.7 hPa | - | - | 306 W/m² | - |
| 1777974566 | 20.56° C | 59% | 998.8 hPa | - | - | 317 W/m² | - |
| 1777973963 | 20.56° C | 59% | 998.7 hPa | - | - | 188 W/m² | - |
| 1777973662 | 20.56° C | 59% | 998.7 hPa | - | - | 262 W/m² | - |
| 1777973361 | 20° C | 61% | 998.7 hPa | - | - | 303 W/m² | - |
| 1777973060 | 19.44° C | 62% | 998.8 hPa | - | - | 285 W/m² | - |
| 1777972759 | 19.44° C | 61% | 998.9 hPa | - | - | 242 W/m² | - |
| 1777972157 | 19.44° C | 62% | 998.9 hPa | - | - | 157 W/m² | - |
| 1777971856 | 18.89° C | 62% | 999 hPa | - | - | 125 W/m² | - |
| 1777971555 | 18.89° C | 64% | 999 hPa | - | - | 135 W/m² | - |
| 1777971254 | 18.89° C | 63% | 998.9 hPa | - | - | 147 W/m² | - |
| 1777970652 | 19.44° C | 63% | 999 hPa | - | - | 116 W/m² | - |
| 1777970351 | 19.44° C | 61% | 999 hPa | - | - | 100 W/m² | - |
| 1777970050 | 19.44° C | 62% | 999.1 hPa | - | - | 96 W/m² | - |
| 1777969749 | 19.44° C | 61% | 999.1 hPa | - | - | 101 W/m² | - |
* Rain since midnight (hover to see other rain measurements)
** Current wind speed in m/s (hover to see current wind gust speed)